IW9DKU-3 Weather Reports


time (UTC)temp
C
wind
direction
speed
KPH
gust
KPH
rain 1hr
cm
rain 24hr
cm
rain mn
cm
humidity
%
barometer
mb
20260507233928 19 0.0 0.0 0.00 0.00 0.00 64 1018.9
20260507231924 19 0.0 0.0 0.00 0.00 0.00 63 1019.3
20260507225921 20 0.0 0.0 0.00 0.00 0.00 64 1019.5
20260507223917 20 0.0 0.0 0.00 0.00 0.00 64 1019.8
20260507221913 20 0.0 0.0 0.00 0.00 0.00 64 1019.1
20260507215909 20 0.0 0.0 0.00 0.00 0.00 65 1019.0
20260507213906 20 0.0 0.0 0.00 0.00 0.00 65 1019.1
20260507211902 20 0.0 0.0 0.00 0.00 0.00 64 1019.0
20260507205858 20 0.0 0.0 0.00 0.00 0.00 64 1018.8
20260507203854 20 0.0 0.0 0.00 0.00 0.00 64 1019.6
20260507201850 20 0.0 0.0 0.00 0.00 0.00 64 1019.4
20260507195847 20 0.0 0.0 0.00 0.00 0.00 64 1018.9
20260507193843 20 0.0 0.0 0.00 0.00 0.00 63 1019.1
20260507191839 20 0.0 0.0 0.00 0.00 0.00 63 1018.9
20260507183832 20 0.0 0.0 0.00 0.00 0.00 63 1018.7
20260507175824 20 0.0 0.0 0.00 0.00 0.00 62 1018.7
20260507173820 20 0.0 0.0 0.00 0.00 0.00 62 1018.3
20260507165812 20 0.0 0.0 0.00 0.00 0.00 61 1018.9
20260507163808 20 0.0 0.0 0.00 0.00 0.00 61 1018.9
20260507161803 20 0.0 0.0 0.00 0.00 0.00 61 1018.6
20260507155759 20 0.0 0.0 0.00 0.00 0.00 60 1018.9
20260507153755 20 0.0 0.0 0.00 0.00 0.00 60 1019.0
20260507151750 20 0.0 0.0 0.00 0.00 0.00 60 1019.3
20260507145746 20 0.0 0.0 0.00 0.00 0.00 59 1019.4
20260507143741 20 0.0 0.0 0.00 0.00 0.00 59 1019.4
20260507135733 21 0.0 0.0 0.00 0.00 0.00 59 1020.0
20260507133729 21 0.0 0.0 0.00 0.00 0.00 58 1020.1
20260507131726 21 0.0 0.0 0.00 0.00 0.00 58 1020.4
20260507125722 21 0.0 0.0 0.00 0.00 0.00 57 1021.0
20260507123718 21 0.0 0.0 0.00 0.00 0.00 57 1021.0
20260507121714 21 0.0 0.0 0.00 0.00 0.00 56 1021.4
20260507115711 21 0.0 0.0 0.00 0.00 0.00 54 1021.5
20260507113707 21 0.0 0.0 0.00 0.00 0.00 54 1021.5
20260507111703 21 0.0 0.0 0.00 0.00 0.00 50 1021.8
20260507105659 21 0.0 0.0 0.00 0.00 0.00 51 1022.0
20260507103655 21 0.0 0.0 0.00 0.00 0.00 53 1022.1
20260507101652 21 0.0 0.0 0.00 0.00 0.00 52 1022.2
20260507095648 21 0.0 0.0 0.00 0.00 0.00 52 1022.4
20260507093644 21 0.0 0.0 0.00 0.00 0.00 53 1022.5
20260507091640 21 0.0 0.0 0.00 0.00 0.00 54 1022.4
20260507083633 21 0.0 0.0 0.00 0.00 0.00 54 1022.4
20260507081629 20 0.0 0.0 0.00 0.00 0.00 54 1022.1
20260507075625 20 0.0 0.0 0.00 0.00 0.00 56 1022.2
20260507073622 20 0.0 0.0 0.00 0.00 0.00 57 1022.3
20260507071618 20 0.0 0.0 0.00 0.00 0.00 60 1022.3
20260507065614 20 0.0 0.0 0.00 0.00 0.00 60 1022.4
20260507063610 20 0.0 0.0 0.00 0.00 0.00 61 1022.2
20260507062554 19 0.0 0.0 0.00 0.00 0.00 61 1022.1
20260507061607 19 0.0 0.0 0.00 0.00 0.00 61 1022.1
20260507055603 19 0.0 0.0 0.00 0.00 0.00 62 1022.3
20260507053559 19 0.0 0.0 0.00 0.00 0.00 61 1022.4
20260507053149 19 0.0 0.0 0.00 0.00 0.00 57 1021.6
20260507051555 19 0.0 0.0 0.00 0.00 0.00 61 1021.9
20260507045552 19 0.0 0.0 0.00 0.00 0.00 61 1021.8
20260507043548 19 0.0 0.0 0.00 0.00 0.00 58 1021.5
20260507041544 19 0.0 0.0 0.00 0.00 0.00 57 1021.6
20260507035540 19 0.0 0.0 0.00 0.00 0.00 56 1021.6
20260507033536 19 0.0 0.0 0.00 0.00 0.00 56 1021.9
20260507031533 19 0.0 0.0 0.00 0.00 0.00 56 1021.9
20260507025529 19 0.0 0.0 0.00 0.00 0.00 55 1021.8
20260507023525 19 0.0 0.0 0.00 0.00 0.00 52 1021.6
20260507021521 19 0.0 0.0 0.00 0.00 0.00 56 1021.4
20260507015518 19 0.0 0.0 0.00 0.00 0.00 55 1021.4
20260507013514 19 0.0 0.0 0.00 0.00 0.00 54 1021.8
20260507011510 19 0.0 0.0 0.00 0.00 0.00 59 1021.9
20260507005506 19 0.0 0.0 0.00 0.00 0.00 60 1021.8
20260507003503 19 0.0 0.0 0.00 0.00 0.00 60 1021.9
20260507001459 19 0.0 0.0 0.00 0.00 0.00 61 1022.2
20260506235455 19 0.0 0.0 0.00 0.00 0.00 61 1022.3